| time (UTC) | temp C | wind direction | speed KPH | gust KPH | rain 1hr cm | rain 24hr cm | rain mn cm | humidity % | barometer mb |
| 20260508073022 | 4 | 244 | 3.2 | 6.4 | 0.00 | 0.00 | 0.00 | 77 | 1013.4 |
| 20260508072519 | 4 | 213 | 3.2 | 6.4 | 0.00 | 0.00 | 0.00 | 78 | 1013.3 |
| 20260508072019 | 4 | 222 | 3.2 | 6.4 | 0.00 | 0.00 | 0.00 | 79 | 1013.3 |
| 20260508071520 | 3 | 206 | 1.6 | 4.8 | 0.00 | 0.00 | 0.00 | 80 | 1013.4 |
| 20260508071019 | 3 | 207 | 1.6 | 3.2 | 0.00 | 0.00 | 0.00 | 82 | 1013.5 |
| 20260508070519 | 3 | 0 | 1.6 | 4.8 | 0.00 | 0.00 | 0.00 | 82 | 1013.6 |
| 20260508070019 | 3 | 0 | 1.6 | 4.8 | 0.00 | 0.00 | 0.00 | 82 | 1013.5 |
| 20260508065519 | 3 | 278 | 3.2 | 4.8 | 0.00 | 0.00 | 0.00 | 83 | 1013.6 |
| 20260508065243 | 3 | 251 | 1.6 | 4.8 | 0.00 | 0.00 | 0.00 | 81 | 1013.6 |
| 20260508064520 | 3 | 277 | 1.6 | 4.8 | 0.00 | 0.00 | 0.00 | 81 | 1013.5 |
| 20260508064017 | 3 | 236 | 1.6 | 4.8 | 0.00 | 0.00 | 0.00 | 81 | 1013.4 |
| 20260508063516 | 3 | 183 | 1.6 | 4.8 | 0.00 | 0.00 | 0.00 | 85 | 1013.4 |
| 20260508063006 | 3 | 296 | 3.2 | 4.8 | 0.00 | 0.00 | 0.00 | 85 | 1013.4 |
| 20260508062506 | 3 | 283 | 3.2 | 4.8 | 0.00 | 0.00 | 0.00 | 85 | 1013.5 |
| 20260508062006 | 2 | 286 | 1.6 | 4.8 | 0.00 | 0.00 | 0.00 | 88 | 1013.5 |
| 20260508061506 | 2 | 0 | 1.6 | 3.2 | 0.00 | 0.00 | 0.00 | 89 | 1013.5 |
| 20260508061229 | 3 | 213 | 1.6 | 4.8 | 0.00 | 0.00 | 0.00 | 88 | 1013.6 |
| 20260508060506 | 3 | 208 | 1.6 | 4.8 | 0.00 | 0.00 | 0.00 | 86 | 1013.6 |
| 20260508060004 | 3 | 240 | 0.0 | 4.8 | 0.00 | 0.00 | 0.00 | 88 | 1013.6 |
| 20260508055720 | 3 | 0 | 0.0 | 1.6 | 0.00 | 0.00 | 0.00 | 86 | 1013.6 |
| 20260508055225 | 4 | 0 | 0.0 | 3.2 | 0.00 | 0.00 | 0.00 | 81 | 1013.7 |
| 20260508054504 | 4 | 0 | 0.0 | 3.2 | 0.00 | 0.00 | 0.00 | 80 | 1013.8 |
| 20260508054003 | 4 | 0 | 0.0 | 3.2 | 0.00 | 0.00 | 0.00 | 78 | 1013.8 |
| 20260508053500 | 4 | 0 | 0.0 | 3.2 | 0.00 | 0.00 | 0.00 | 79 | 1013.8 |
| 20260508053217 | 4 | 285 | 1.6 | 3.2 | 0.00 | 0.00 | 0.00 | 81 | 1014.0 |
| 20260508052457 | 4 | 0 | 1.6 | 4.8 | 0.00 | 0.00 | 0.00 | 81 | 1014.0 |
| 20260508051958 | 3 | 247 | 1.6 | 4.8 | 0.00 | 0.00 | 0.00 | 79 | 1013.9 |
| 20260508051721 | 3 | 296 | 1.6 | 4.8 | 0.00 | 0.00 | 0.00 | 88 | 1013.9 |
| 20260508050958 | 3 | 235 | 1.6 | 3.2 | 0.00 | 0.00 | 0.00 | 85 | 1013.9 |
| 20260508050459 | 3 | 283 | 0.0 | 3.2 | 0.00 | 0.00 | 0.00 | 81 | 1013.8 |
| 20260508050220 | 3 | 0 | 0.0 | 1.6 | 0.00 | 0.00 | 0.00 | 84 | 1013.8 |
| 20260508045459 | 3 | 0 | 0.0 | 1.6 | 0.00 | 0.00 | 0.00 | 82 | 1013.8 |
| 20260508044956 | 3 | 302 | 0.0 | 1.6 | 0.00 | 0.00 | 0.00 | 84 | 1013.9 |
| 20260508044456 | 4 | 231 | 0.0 | 1.6 | 0.00 | 0.00 | 0.00 | 83 | 1013.8 |
| 20260508043955 | 4 | 0 | 0.0 | 1.6 | 0.00 | 0.00 | 0.00 | 79 | 1013.8 |
| 20260508043453 | 4 | 0 | 0.0 | 1.6 | 0.00 | 0.00 | 0.00 | 78 | 1013.7 |
| 20260508042954 | 4 | 0 | 0.0 | 1.6 | 0.00 | 0.00 | 0.00 | 79 | 1013.7 |
| 20260508042454 | 4 | 0 | 0.0 | 1.6 | 0.00 | 0.00 | 0.00 | 77 | 1013.7 |
| 20260508041955 | 4 | 0 | 0.0 | 1.6 | 0.00 | 0.00 | 0.00 | 81 | 1013.7 |
| 20260508041454 | 4 | 0 | 0.0 | 0.0 | 0.00 | 0.00 | 0.00 | 78 | 1013.7 |
| 20260508040954 | 4 | 0 | 0.0 | 1.6 | 0.00 | 0.00 | 0.00 | 76 | 1013.7 |
| 20260508040455 | 5 | 0 | 0.0 | 1.6 | 0.00 | 0.00 | 0.00 | 77 | 1013.6 |
| 20260508035955 | 5 | 0 | 0.0 | 1.6 | 0.00 | 0.00 | 0.00 | 78 | 1013.6 |
| 20260508035717 | 5 | 0 | 0.0 | 3.2 | 0.00 | 0.00 | 0.00 | 76 | 1013.6 |
| 20260508034955 | 5 | 0 | 0.0 | 3.2 | 0.00 | 0.00 | 0.00 | 76 | 1013.6 |
| 20260508034719 | 6 | 291 | 0.0 | 3.2 | 0.00 | 0.00 | 0.00 | 70 | 1013.6 |
| 20260508033951 | 6 | 0 | 0.0 | 1.6 | 0.00 | 0.00 | 0.00 | 70 | 1013.5 |
| 20260508033451 | 6 | 0 | 0.0 | 0.0 | 0.00 | 0.00 | 0.00 | 69 | 1013.4 |
| 20260508032951 | 6 | 0 | 0.0 | 1.6 | 0.00 | 0.00 | 0.00 | 69 | 1013.4 |
| 20260508032451 | 6 | 0 | 0.0 | 1.6 | 0.00 | 0.00 | 0.00 | 68 | 1013.5 |
| 20260508031951 | 6 | 0 | 0.0 | 0.0 | 0.00 | 0.00 | 0.00 | 68 | 1013.5 |
| 20260508031451 | 6 | 0 | 0.0 | 1.6 | 0.00 | 0.00 | 0.00 | 67 | 1013.5 |
| 20260508030952 | 6 | 0 | 0.0 | 1.6 | 0.00 | 0.00 | 0.00 | 69 | 1013.5 |
| 20260508030451 | 6 | 0 | 0.0 | 3.2 | 0.00 | 0.00 | 0.00 | 69 | 1013.5 |
| 20260508025952 | 6 | 242 | 0.0 | 3.2 | 0.00 | 0.00 | 0.00 | 66 | 1013.6 |
| 20260508025452 | 6 | 0 | 0.0 | 3.2 | 0.00 | 0.00 | 0.00 | 71 | 1013.6 |
| 20260508024949 | 7 | 229 | 0.0 | 3.2 | 0.00 | 0.00 | 0.00 | 70 | 1013.6 |
| 20260508024448 | 7 | 0 | 0.0 | 3.2 | 0.00 | 0.00 | 0.00 | 66 | 1013.6 |
| 20260508023946 | 7 | 309 | 1.6 | 3.2 | 0.00 | 0.00 | 0.00 | 66 | 1013.6 |
| 20260508023708 | 7 | 250 | 1.6 | 3.2 | 0.00 | 0.00 | 0.00 | 66 | 1013.7 |
| 20260508022946 | 6 | 274 | 0.0 | 3.2 | 0.00 | 0.00 | 0.00 | 66 | 1013.6 |
| 20260508022447 | 6 | 0 | 0.0 | 3.2 | 0.00 | 0.00 | 0.00 | 70 | 1013.6 |
| 20260508021946 | 7 | 234 | 0.0 | 3.2 | 0.00 | 0.00 | 0.00 | 67 | 1013.6 |
| 20260508021446 | 7 | 0 | 1.6 | 4.8 | 0.00 | 0.00 | 0.00 | 68 | 1013.5 |
| 20260508020947 | 7 | 289 | 1.6 | 4.8 | 0.00 | 0.00 | 0.00 | 64 | 1013.5 |
| 20260508020707 | 7 | 290 | 0.0 | 3.2 | 0.00 | 0.00 | 0.00 | 66 | 1013.4 |
| 20260508020205 | 7 | 0 | 0.0 | 3.2 | 0.00 | 0.00 | 0.00 | 64 | 1013.4 |
| 20260508015441 | 7 | 291 | 1.6 | 4.8 | 0.00 | 0.00 | 0.00 | 66 | 1013.3 |
| 20260508014941 | 7 | 0 | 1.6 | 4.8 | 0.00 | 0.00 | 0.00 | 66 | 1013.2 |
| 20260508014439 | 8 | 249 | 1.6 | 4.8 | 0.00 | 0.00 | 0.00 | 64 | 1013.2 |
| 20260508013938 | 8 | 279 | 1.6 | 4.8 | 0.00 | 0.00 | 0.00 | 61 | 1013.2 |
| 20260508013438 | 8 | 0 | 1.6 | 4.8 | 0.00 | 0.00 | 0.00 | 60 | 1013.1 |
| 20260508012936 | 8 | 263 | 3.2 | 4.8 | 0.00 | 0.00 | 0.00 | 60 | 1013.1 |
| 20260508012655 | 8 | 280 | 3.2 | 4.8 | 0.00 | 0.00 | 0.00 | 58 | 1013.0 |
| 20260508011936 | 9 | 262 | 1.6 | 4.8 | 0.00 | 0.00 | 0.00 | 59 | 1012.9 |
| 20260508011436 | 9 | 276 | 1.6 | 4.8 | 0.00 | 0.00 | 0.00 | 59 | 1012.9 |
| 20260508010935 | 9 | 0 | 3.2 | 8.0 | 0.00 | 0.00 | 0.00 | 58 | 1012.8 |
| 20260508010433 | 9 | 299 | 3.2 | 8.0 | 0.00 | 0.00 | 0.00 | 58 | 1012.8 |
| 20260508005933 | 10 | 274 | 3.2 | 6.4 | 0.00 | 0.00 | 0.00 | 59 | 1012.8 |
| 20260508005433 | 10 | 246 | 3.2 | 4.8 | 0.00 | 0.00 | 0.00 | 59 | 1012.8 |
| 20260508004933 | 10 | 275 | 3.2 | 6.4 | 0.00 | 0.00 | 0.00 | 56 | 1012.7 |
| 20260508004652 | 10 | 0 | 3.2 | 6.4 | 0.00 | 0.00 | 0.00 | 55 | 1012.7 |
| 20260508003934 | 10 | 280 | 4.8 | 12.9 | 0.00 | 0.00 | 0.00 | 55 | 1012.6 |
| 20260508003704 | 11 | 311 | 4.8 | 12.9 | 0.00 | 0.00 | 0.00 | 54 | 1012.6 |
| 20260508002934 | 11 | 280 | 4.8 | 11.3 | 0.00 | 0.00 | 0.00 | 54 | 1012.6 |
| 20260508002657 | 11 | 248 | 4.8 | 11.3 | 0.00 | 0.00 | 0.00 | 54 | 1012.5 |
| 20260508001933 | 11 | 277 | 4.8 | 9.7 | 0.00 | 0.00 | 0.00 | 54 | 1012.5 |
| 20260508001430 | 11 | 307 | 4.8 | 12.9 | 0.00 | 0.00 | 0.00 | 53 | 1012.3 |
| 20260508000929 | 11 | 262 | 4.8 | 12.9 | 0.00 | 0.00 | 0.00 | 52 | 1012.2 |
| 20260508000430 | 12 | 334 | 4.8 | 11.3 | 0.00 | 0.00 | 0.00 | 53 | 1012.1 |
| 20260507235930 | 12 | 318 | 6.4 | 14.5 | 0.00 | 0.00 | 0.00 | 50 | 1012.0 |
| 20260507235647 | 12 | 286 | 6.4 | 14.5 | 0.00 | 0.00 | 0.00 | 51 | 1012.1 |
| 20260507235156 | 12 | 290 | 8.0 | 16.1 | 0.00 | 0.00 | 0.00 | 50 | 1011.9 |
| 20260507234431 | 12 | 302 | 8.0 | 16.1 | 0.00 | 0.00 | 0.00 | 50 | 1011.9 |
| 20260507233931 | 13 | 243 | 9.7 | 19.3 | 0.00 | 0.00 | 0.00 | 49 | 1011.9 |
| 20260507233430 | 13 | 335 | 11.3 | 20.9 | 0.00 | 0.00 | 0.00 | 48 | 1011.8 |
| 20260507232427 | 13 | 204 | 8.0 | 19.3 | 0.00 | 0.00 | 0.00 | 47 | 1011.8 |
| 20260507232149 | 13 | 288 | 8.0 | 19.3 | 0.00 | 0.00 | 0.00 | 47 | 1011.7 |
| 20260507231428 | 13 | 297 | 8.0 | 16.1 | 0.00 | 0.00 | 0.00 | 45 | 1011.6 |
| 20260507230427 | 13 | 271 | 9.7 | 22.5 | 0.00 | 0.00 | 0.00 | 45 | 1011.6 |
| 20260507225928 | 14 | 263 | 9.7 | 19.3 | 0.00 | 0.00 | 0.00 | 45 | 1011.5 |
| 20260507225428 | 14 | 279 | 9.7 | 19.3 | 0.00 | 0.00 | 0.00 | 43 | 1011.5 |
| 20260507224928 | 14 | 276 | 9.7 | 20.9 | 0.00 | 0.00 | 0.00 | 44 | 1011.4 |
| 20260507224429 | 13 | 287 | 9.7 | 20.9 | 0.00 | 0.00 | 0.00 | 44 | 1011.3 |
| 20260507223928 | 14 | 281 | 8.0 | 16.1 | 0.00 | 0.00 | 0.00 | 44 | 1011.3 |
| 20260507223428 | 15 | 308 | 8.0 | 20.9 | 0.00 | 0.00 | 0.00 | 43 | 1011.2 |
| 20260507222425 | 15 | 270 | 11.3 | 27.4 | 0.00 | 0.00 | 0.00 | 41 | 1011.2 |
| 20260507221926 | 15 | 257 | 11.3 | 27.4 | 0.00 | 0.00 | 0.00 | 42 | 1010.9 |
| 20260507221425 | 15 | 290 | 9.7 | 16.1 | 0.00 | 0.00 | 0.00 | 43 | 1011.1 |
| 20260507221154 | 15 | 271 | 8.0 | 16.1 | 0.00 | 0.00 | 0.00 | 42 | 1011.1 |
| 20260507220426 | 15 | 287 | 8.0 | 14.5 | 0.00 | 0.00 | 0.00 | 44 | 1011.0 |
| 20260507215926 | 14 | 288 | 9.7 | 16.1 | 0.00 | 0.00 | 0.00 | 44 | 1011.0 |
| 20260507215427 | 15 | 290 | 9.7 | 19.3 | 0.00 | 0.00 | 0.00 | 43 | 1010.9 |
| 20260507214926 | 15 | 235 | 11.3 | 20.9 | 0.00 | 0.00 | 0.00 | 43 | 1010.8 |
| 20260507214425 | 15 | 231 | 11.3 | 20.9 | 0.00 | 0.00 | 0.00 | 43 | 1010.7 |
| 20260507213924 | 15 | 266 | 11.3 | 20.9 | 0.00 | 0.00 | 0.00 | 43 | 1010.6 |
| 20260507213422 | 15 | 271 | 9.7 | 17.7 | 0.00 | 0.00 | 0.00 | 45 | 1010.7 |
| 20260507212919 | 15 | 270 | 9.7 | 16.1 | 0.00 | 0.00 | 0.00 | 43 | 1010.6 |
| 20260507212418 | 15 | 266 | 9.7 | 16.1 | 0.00 | 0.00 | 0.00 | 42 | 1010.7 |
| 20260507211919 | 15 | 290 | 9.7 | 17.7 | 0.00 | 0.00 | 0.00 | 43 | 1010.6 |
| 20260507211648 | 15 | 252 | 9.7 | 19.3 | 0.00 | 0.00 | 0.00 | 42 | 1010.5 |
| 20260507210919 | 15 | 279 | 9.7 | 19.3 | 0.00 | 0.00 | 0.00 | 43 | 1010.5 |
| 20260507210419 | 15 | 271 | 9.7 | 17.7 | 0.00 | 0.00 | 0.00 | 42 | 1010.4 |
| 20260507205920 | 15 | 311 | 11.3 | 19.3 | 0.00 | 0.00 | 0.00 | 43 | 1010.5 |
| 20260507205419 | 15 | 268 | 11.3 | 20.9 | 0.00 | 0.00 | 0.00 | 43 | 1010.5 |
| 20260507204920 | 15 | 301 | 9.7 | 20.9 | 0.00 | 0.00 | 0.00 | 43 | 1010.3 |
| 20260507204419 | 15 | 275 | 8.0 | 16.1 | 0.00 | 0.00 | 0.00 | 45 | 1010.4 |
| 20260507203916 | 15 | 225 | 8.0 | 16.1 | 0.00 | 0.00 | 0.00 | 43 | 1010.4 |
| 20260507203641 | 15 | 270 | 8.0 | 16.1 | 0.00 | 0.00 | 0.00 | 45 | 1010.4 |
| 20260507202917 | 15 | 299 | 8.0 | 17.7 | 0.00 | 0.00 | 0.00 | 45 | 1010.4 |
| 20260507202418 | 15 | 243 | 8.0 | 17.7 | 0.00 | 0.00 | 0.00 | 45 | 1010.3 |
| 20260507201917 | 14 | 294 | 9.7 | 17.7 | 0.00 | 0.00 | 0.00 | 45 | 1010.3 |
| 20260507201417 | 15 | 293 | 11.3 | 19.3 | 0.00 | 0.00 | 0.00 | 44 | 1010.4 |
| 20260507200918 | 15 | 270 | 11.3 | 19.3 | 0.00 | 0.00 | 0.00 | 44 | 1010.5 |
| 20260507200636 | 16 | 232 | 9.7 | 19.3 | 0.00 | 0.00 | 0.00 | 43 | 1010.3 |
| 20260507195917 | 15 | 213 | 6.4 | 14.5 | 0.00 | 0.00 | 0.00 | 45 | 1010.6 |
| 20260507195418 | 15 | 261 | 8.0 | 16.1 | 0.00 | 0.00 | 0.00 | 44 | 1010.7 |
| 20260507195138 | 15 | 258 | 9.7 | 17.7 | 0.00 | 0.00 | 0.00 | 45 | 1010.7 |
| 20260507194642 | 15 | 265 | 9.7 | 17.7 | 0.00 | 0.00 | 0.00 | 44 | 1010.6 |
| 20260507193915 | 14 | 275 | 9.7 | 17.7 | 0.00 | 0.00 | 0.00 | 45 | 1010.7 |
| 20260507193415 | 15 | 272 | 9.7 | 16.1 | 0.00 | 0.00 | 0.00 | 46 | 1010.8 |
| 20260507192915 | 15 | 274 | 11.3 | 22.5 | 0.00 | 0.00 | 0.00 | 45 | 1010.8 |
| 20260507192415 | 15 | 221 | 12.9 | 22.5 | 0.00 | 0.00 | 0.00 | 44 | 1010.8 |
| 20260507191915 | 16 | 244 | 9.7 | 22.5 | 0.00 | 0.00 | 0.00 | 44 | 1010.8 |
| 20260507191415 | 16 | 210 | 9.7 | 25.7 | 0.00 | 0.00 | 0.00 | 45 | 1010.9 |
| 20260507190916 | 15 | 74 | 9.7 | 25.7 | 0.00 | 0.00 | 0.00 | 43 | 1011.0 |
| 20260507190415 | 15 | 286 | 9.7 | 20.9 | 0.00 | 0.00 | 0.00 | 43 | 1010.9 |
| 20260507185913 | 15 | 302 | 9.7 | 20.9 | 0.00 | 0.00 | 0.00 | 44 | 1011.0 |
| 20260507185413 | 15 | 282 | 9.7 | 19.3 | 0.00 | 0.00 | 0.00 | 44 | 1010.9 |
| 20260507184910 | 15 | 294 | 8.0 | 16.1 | 0.00 | 0.00 | 0.00 | 45 | 1010.9 |
| 20260507184409 | 14 | 282 | 8.0 | 20.9 | 0.00 | 0.00 | 0.00 | 44 | 1010.9 |
| 20260507183910 | 15 | 283 | 8.0 | 20.9 | 0.00 | 0.00 | 0.00 | 47 | 1011.0 |
| 20260507183410 | 15 | 213 | 9.7 | 22.5 | 0.00 | 0.00 | 0.00 | 47 | 1011.0 |
| 20260507182910 | 15 | 294 | 9.7 | 22.5 | 0.00 | 0.00 | 0.00 | 44 | 1011.1 |
| 20260507182411 | 15 | 227 | 9.7 | 19.3 | 0.00 | 0.00 | 0.00 | 45 | 1011.1 |
| 20260507181911 | 15 | 274 | 9.7 | 22.5 | 0.00 | 0.00 | 0.00 | 44 | 1011.0 |
| 20260507181638 | 15 | 280 | 9.7 | 22.5 | 0.00 | 0.00 | 0.00 | 45 | 1011.1 |
| 20260507180911 | 14 | 224 | 8.0 | 16.1 | 0.00 | 0.00 | 0.00 | 44 | 1011.0 |
| 20260507180407 | 14 | 250 | 8.0 | 16.1 | 0.00 | 0.00 | 0.00 | 47 | 1011.0 |
| 20260507175908 | 14 | 310 | 9.7 | 19.3 | 0.00 | 0.00 | 0.00 | 47 | 1011.2 |
| 20260507175407 | 14 | 256 | 8.0 | 19.3 | 0.00 | 0.00 | 0.00 | 46 | 1011.2 |
| 20260507174908 | 14 | 276 | 9.7 | 20.9 | 0.00 | 0.00 | 0.00 | 49 | 1011.3 |
| 20260507174408 | 14 | 305 | 11.3 | 20.9 | 0.00 | 0.00 | 0.00 | 46 | 1011.3 |
| 20260507173908 | 14 | 255 | 9.7 | 20.9 | 0.00 | 0.00 | 0.00 | 47 | 1011.3 |
| 20260507173634 | 14 | 241 | 8.0 | 20.9 | 0.00 | 0.00 | 0.00 | 45 | 1011.3 |
| 20260507172908 | 14 | 289 | 9.7 | 17.7 | 0.00 | 0.00 | 0.00 | 46 | 1011.4 |
| 20260507172408 | 14 | 298 | 9.7 | 17.7 | 0.00 | 0.00 | 0.00 | 47 | 1011.5 |
| 20260507171908 | 13 | 276 | 9.7 | 17.7 | 0.00 | 0.00 | 0.00 | 47 | 1011.5 |
| 20260507171409 | 13 | 269 | 9.7 | 17.7 | 0.00 | 0.00 | 0.00 | 48 | 1011.5 |
| 20260507170906 | 13 | 262 | 8.0 | 16.1 | 0.00 | 0.00 | 0.00 | 48 | 1011.7 |
| 20260507170403 | 13 | 234 | 8.0 | 19.3 | 0.00 | 0.00 | 0.00 | 48 | 1011.7 |
| 20260507165903 | 13 | 267 | 8.0 | 19.3 | 0.00 | 0.00 | 0.00 | 50 | 1011.8 |
| 20260507165403 | 13 | 246 | 9.7 | 19.3 | 0.00 | 0.00 | 0.00 | 48 | 1011.8 |
| 20260507164903 | 13 | 320 | 9.7 | 19.3 | 0.00 | 0.00 | 0.00 | 48 | 1011.9 |
| 20260507164403 | 13 | 273 | 8.0 | 14.5 | 0.00 | 0.03 | 0.00 | 50 | 1012.0 |
| 20260507163903 | 13 | 267 | 9.7 | 20.9 | 0.00 | 0.03 | 0.00 | 51 | 1012.0 |
| 20260507163403 | 13 | 297 | 9.7 | 20.9 | 0.00 | 0.03 | 0.00 | 50 | 1012.0 |
| 20260507163127 | 13 | 245 | 8.0 | 16.1 | 0.00 | 0.03 | 0.00 | 50 | 1012.0 |
| 20260507162404 | 13 | 298 | 8.0 | 16.1 | 0.00 | 0.03 | 0.00 | 50 | 1012.0 |
| 20260507162123 | 13 | 247 | 8.0 | 14.5 | 0.00 | 0.03 | 0.00 | 51 | 1012.0 |
| 20260507161404 | 13 | 303 | 8.0 | 14.5 | 0.00 | 0.03 | 0.00 | 52 | 1012.0 |
| 20260507160902 | 13 | 235 | 6.4 | 14.5 | 0.00 | 0.03 | 0.00 | 54 | 1012.0 |
| 20260507160403 | 13 | 224 | 6.4 | 17.7 | 0.00 | 0.03 | 0.00 | 52 | 1012.1 |
| 20260507155902 | 13 | 291 | 6.4 | 17.7 | 0.00 | 0.03 | 0.00 | 54 | 1012.1 |
| 20260507155402 | 13 | 219 | 8.0 | 20.9 | 0.00 | 0.03 | 0.00 | 52 | 1012.1 |
| 20260507155128 | 13 | 226 | 8.0 | 20.9 | 0.00 | 0.03 | 0.00 | 52 | 1012.2 |
| 20260507154402 | 13 | 274 | 8.0 | 14.5 | 0.00 | 0.03 | 0.00 | 52 | 1012.2 |
| 20260507154119 | 12 | 335 | 8.0 | 16.1 | 0.00 | 0.03 | 0.00 | 53 | 1012.2 |
| 20260507153625 | 12 | 223 | 8.0 | 19.3 | 0.00 | 0.03 | 0.00 | 53 | 1012.3 |
| 20260507153125 | 12 | 287 | 8.0 | 19.3 | 0.00 | 0.03 | 0.00 | 56 | 1012.3 |
| 20260507152403 | 11 | 268 | 6.4 | 17.7 | 0.00 | 0.03 | 0.00 | 55 | 1012.2 |
| 20260507151859 | 11 | 335 | 6.4 | 11.3 | 0.00 | 0.03 | 0.00 | 58 | 1012.2 |
| 20260507151359 | 12 | 287 | 6.4 | 11.3 | 0.00 | 0.03 | 0.00 | 59 | 1012.3 |
| 20260507150900 | 11 | 244 | 4.8 | 9.7 | 0.00 | 0.03 | 0.00 | 57 | 1012.3 |
| 20260507150359 | 12 | 337 | 4.8 | 9.7 | 0.00 | 0.03 | 0.00 | 57 | 1012.5 |
| 20260507145900 | 12 | 270 | 4.8 | 9.7 | 0.00 | 0.03 | 0.00 | 58 | 1012.5 |
| 20260507145400 | 12 | 168 | 6.4 | 14.5 | 0.00 | 0.03 | 0.00 | 61 | 1012.6 |
| 20260507144900 | 12 | 204 | 8.0 | 16.1 | 0.00 | 0.03 | 0.00 | 61 | 1012.7 |
| 20260507144400 | 11 | 212 | 6.4 | 16.1 | 0.00 | 0.03 | 0.00 | 57 | 1012.7 |
| 20260507143859 | 11 | 289 | 6.4 | 14.5 | 0.00 | 0.03 | 0.00 | 60 | 1012.8 |
| 20260507143359 | 11 | 231 | 6.4 | 14.5 | 0.00 | 0.03 | 0.00 | 62 | 1012.9 |
| 20260507142857 | 12 | 223 | 4.8 | 16.1 | 0.00 | 0.03 | 0.00 | 63 | 1012.9 |
| 20260507142356 | 11 | 319 | 6.4 | 16.1 | 0.00 | 0.03 | 0.00 | 63 | 1012.9 |
| 20260507141857 | 12 | 267 | 4.8 | 16.1 | 0.00 | 0.03 | 0.00 | 62 | 1013.0 |
| 20260507141356 | 12 | 226 | 4.8 | 9.7 | 0.00 | 0.03 | 0.00 | 63 | 1013.0 |
| 20260507140857 | 12 | 201 | 3.2 | 9.7 | 0.00 | 0.03 | 0.00 | 63 | 1013.0 |
| 20260507140354 | 11 | 159 | 4.8 | 11.3 | 0.00 | 0.03 | 0.00 | 63 | 1013.1 |
| 20260507135855 | 11 | 229 | 6.4 | 14.5 | 0.00 | 0.03 | 0.00 | 64 | 1013.2 |
| 20260507135615 | 11 | 279 | 6.4 | 14.5 | 0.00 | 0.03 | 0.00 | 65 | 1013.3 |
| 20260507135116 | 11 | 270 | 4.8 | 12.9 | 0.00 | 0.03 | 0.00 | 64 | 1013.3 |
| 20260507134620 | 11 | 136 | 4.8 | 12.9 | 0.00 | 0.03 | 0.00 | 66 | 1013.4 |
| 20260507133854 | 11 | 166 | 4.8 | 12.9 | 0.00 | 0.03 | 0.00 | 67 | 1013.5 |
| 20260507133351 | 11 | 307 | 4.8 | 14.5 | 0.00 | 0.03 | 0.00 | 68 | 1013.5 |
| 20260507132852 | 11 | 178 | 4.8 | 14.5 | 0.00 | 0.03 | 0.00 | 67 | 1013.5 |
| 20260507132353 | 11 | 149 | 4.8 | 9.7 | 0.00 | 0.03 | 0.00 | 70 | 1013.5 |
| 20260507131852 | 10 | 192 | 3.2 | 9.7 | 0.00 | 0.03 | 0.00 | 68 | 1013.5 |
| 20260507131349 | 10 | 214 | 4.8 | 11.3 | 0.00 | 0.03 | 0.00 | 69 | 1013.6 |
| 20260507130850 | 10 | 194 | 4.8 | 11.3 | 0.00 | 0.03 | 0.00 | 71 | 1013.6 |
| 20260507130350 | 10 | 144 | 4.8 | 9.7 | 0.00 | 0.03 | 0.00 | 70 | 1013.6 |
| 20260507125851 | 10 | 239 | 4.8 | 8.0 | 0.00 | 0.03 | 0.00 | 71 | 1013.6 |
| 20260507125351 | 9 | 171 | 3.2 | 8.0 | 0.00 | 0.03 | 0.00 | 76 | 1013.6 |
| 20260507124850 | 9 | 222 | 3.2 | 8.0 | 0.00 | 0.03 | 0.00 | 77 | 1013.5 |
| 20260507124350 | 8 | 216 | 4.8 | 8.0 | 0.00 | 0.03 | 0.00 | 77 | 1013.5 |
| 20260507123849 | 8 | 261 | 4.8 | 8.0 | 0.00 | 0.03 | 0.00 | 77 | 1013.5 |
| 20260507123347 | 8 | 235 | 4.8 | 8.0 | 0.00 | 0.03 | 0.00 | 78 | 1013.5 |
| 20260507122847 | 8 | 265 | 3.2 | 6.4 | 0.00 | 0.03 | 0.00 | 79 | 1013.5 |
| 20260507122347 | 8 | 189 | 3.2 | 4.8 | 0.00 | 0.03 | 0.00 | 79 | 1013.5 |
| 20260507121847 | 8 | 243 | 3.2 | 4.8 | 0.00 | 0.05 | 0.00 | 80 | 1013.5 |
| 20260507121607 | 7 | 256 | 1.6 | 4.8 | 0.00 | 0.05 | 0.00 | 82 | 1013.4 |
| 20260507120846 | 7 | 0 | 1.6 | 4.8 | 0.00 | 0.05 | 0.00 | 86 | 1013.4 |
| 20260507120347 | 7 | 226 | 1.6 | 4.8 | 0.00 | 0.05 | 0.00 | 86 | 1013.4 |
| 20260507115848 | 7 | 238 | 1.6 | 3.2 | 0.00 | 0.05 | 0.00 | 87 | 1013.4 |
| 20260507115610 | 6 | 0 | 0.0 | 1.6 | 0.00 | 0.05 | 0.00 | 91 | 1013.4 |
| 20260507114347 | 5 | 0 | 0.0 | 0.0 | 0.00 | 0.05 | 0.00 | 94 | 1013.3 |
| 20260507113847 | 5 | 0 | 0.0 | 0.0 | 0.00 | 0.08 | 0.00 | 96 | 1013.3 |
| 20260507113348 | 5 | 0 | 0.0 | 3.2 | 0.00 | 0.10 | 0.00 | 97 | 1013.3 |
| 20260507113109 | 4 | 0 | 0.0 | 3.2 | 0.00 | 0.13 | 0.00 | 98 | 1013.4 |
| 20260507112608 | 3 | 0 | 0.0 | 1.6 | 0.00 | 0.15 | 0.00 | 98 | 1013.3 |
| 20260507111844 | 3 | 0 | 0.0 | 1.6 | 0.00 | 0.15 | 0.00 | 99 | 1013.2 |
| 20260507110845 | 3 | 280 | 0.0 | 1.6 | 0.00 | 0.15 | 0.00 | 99 | 1013.1 |
| 20260507110609 | 3 | 0 | 0.0 | 1.6 | 0.00 | 0.15 | 0.00 | 99 | 1013.1 |
| 20260507105845 | 2 | 0 | 0.0 | 0.0 | 0.00 | 0.15 | 0.00 | 100 | 1013.0 |
| 20260507105345 | 2 | 0 | 0.0 | 0.0 | 0.00 | 0.15 | 0.00 | 100 | 1013.0 |
| 20260507104845 | 2 | 0 | 0.0 | 0.0 | 0.00 | 0.15 | 0.00 | 99 | 1012.9 |
| 20260507104345 | 2 | 0 | 0.0 | 1.6 | 0.00 | 0.15 | 0.00 | 99 | 1012.8 |
| 20260507104117 | 2 | 0 | 0.0 | 1.6 | 0.00 | 0.15 | 0.00 | 99 | 1012.8 |
| 20260507103346 | 2 | 0 | 0.0 | 1.6 | 0.00 | 0.15 | 0.00 | 99 | 1012.8 |
| 20260507102844 | 2 | 219 | 0.0 | 1.6 | 0.00 | 0.15 | 0.00 | 99 | 1012.7 |
| 20260507102342 | 2 | 0 | 0.0 | 0.0 | 0.00 | 0.15 | 0.00 | 99 | 1012.7 |
| 20260507101843 | 2 | 0 | 0.0 | 0.0 | 0.00 | 0.15 | 0.00 | 99 | 1012.7 |
| 20260507101343 | 2 | 0 | 0.0 | 0.0 | 0.00 | 0.15 | 0.00 | 100 | 1012.7 |
| 20260507100844 | 2 | 0 | 0.0 | 0.0 | 0.00 | 0.15 | 0.00 | 100 | 1012.7 |
| 20260507100343 | 2 | 0 | 0.0 | 1.6 | 0.00 | 0.15 | 0.00 | 100 | 1012.7 |
| 20260507095843 | 2 | 0 | 0.0 | 1.6 | 0.00 | 0.15 | 0.00 | 100 | 1012.8 |
| 20260507095600 | 2 | 0 | 0.0 | 1.6 | 0.00 | 0.18 | 0.00 | 100 | 1012.7 |
| 20260507094843 | 2 | 234 | 0.0 | 1.6 | 0.00 | 0.23 | 0.00 | 99 | 1012.7 |
| 20260507094344 | 2 | 218 | 0.0 | 4.8 | 0.00 | 0.23 | 0.00 | 99 | 1012.6 |
| 20260507093844 | 3 | 0 | 1.6 | 4.8 | 0.00 | 0.23 | 0.00 | 100 | 1012.6 |
| 20260507093341 | 3 | 292 | 1.6 | 4.8 | 0.00 | 0.25 | 0.00 | 100 | 1012.6 |
| 20260507092841 | 2 | 0 | 0.0 | 1.6 | 0.00 | 0.25 | 0.00 | 99 | 1012.6 |
| 20260507092338 | 2 | 0 | 0.0 | 1.6 | 0.00 | 0.28 | 0.00 | 100 | 1012.6 |
| 20260507091838 | 3 | 0 | 0.0 | 3.2 | 0.00 | 0.30 | 0.00 | 100 | 1012.6 |
| 20260507091338 | 3 | 0 | 0.0 | 3.2 | 0.00 | 0.33 | 0.00 | 99 | 1012.6 |
| 20260507091104 | 3 | 196 | 1.6 | 3.2 | 0.00 | 0.33 | 0.00 | 100 | 1012.5 |
| 20260507090339 | 3 | 281 | 1.6 | 3.2 | 0.00 | 0.33 | 0.00 | 99 | 1012.5 |
| 20260507085839 | 3 | 213 | 0.0 | 3.2 | 0.00 | 0.36 | 0.00 | 100 | 1012.6 |
| 20260507085338 | 3 | 0 | 0.0 | 3.2 | 0.00 | 0.38 | 0.00 | 99 | 1012.6 |
| 20260507084839 | 3 | 0 | 0.0 | 1.6 | 0.00 | 0.38 | 0.00 | 99 | 1012.7 |
| 20260507084338 | 3 | 0 | 0.0 | 1.6 | 0.00 | 0.38 | 0.00 | 99 | 1012.7 |
| 20260507083839 | 3 | 0 | 0.0 | 1.6 | 0.00 | 0.38 | 0.00 | 99 | 1012.7 |
| 20260507083339 | 3 | 246 | 0.0 | 1.6 | 0.00 | 0.38 | 0.00 | 99 | 1012.8 |
| 20260507082335 | 3 | 0 | 0.0 | 1.6 | 0.00 | 0.43 | 0.00 | 99 | 1012.9 |
| 20260507081836 | 3 | 0 | 0.0 | 1.6 | 0.00 | 0.43 | 0.00 | 98 | 1012.9 |
| 20260507080836 | 4 | 0 | 0.0 | 1.6 | 0.00 | 0.51 | 0.00 | 98 | 1012.9 |
| 20260507080336 | 4 | 0 | 0.0 | 1.6 | 0.00 | 0.56 | 0.00 | 98 | 1012.9 |
| 20260507075837 | 4 | 0 | 0.0 | 1.6 | 0.00 | 0.58 | 0.00 | 98 | 1012.9 |
| 20260507075336 | 4 | 0 | 0.0 | 0.0 | 0.00 | 0.64 | 0.00 | 97 | 1012.8 |
| 20260507074836 | 4 | 0 | 0.0 | 0.0 | 0.00 | 0.76 | 0.00 | 96 | 1012.7 |
| 20260507074337 | 5 | 0 | 0.0 | 0.0 | 0.00 | 0.79 | 0.00 | 95 | 1012.7 |
| 20260507073836 | 5 | 0 | 0.0 | 0.0 | 0.00 | 0.81 | 0.00 | 95 | 1012.7 |
| 20260507073553 | 5 | 0 | 0.0 | 1.6 | 0.00 | 0.86 | 0.00 | 93 | 1012.7 |